Main page
METAR-TAF:

METAR-TAF

Airports :

Santorini National Airport

Santorini, Greece

latitude: 36-24N, longitude: 025-29E, elevation: 38 m

Current weather observation

The report was made 26 minutes ago, at 05:20 UTC
Wind 11 kt from the West
Temperature 28°C
Humidity 70%
Pressure 1006 hPa
Visibility 10 km or more
no clouds below 1500 m and no cumulonimbus

METAR: LGSR 230520Z 26011KT CAVOK 28/22 Q1006

Time: 08:46 (05:46 UTC)

Forecast

The report was made 46 minutes ago, at 05:00 UTC
Forecast valid from 23 at 06 UTC to 24 at 06 UTC
Wind 18 kt from the West
Visibility 10 km or more
Few clouds at a height of 2000 ft

TAF: LGSR 230500Z 2306/2406 27018KT 9999 FEW020

Weather observations and forecasts of more than 4000 airports (METAR and TAF reports).

The available stations are represented by yellow and red dots on the map.

Hover mouse over dot to see the name of the station.

Then click to see weather observations and forecasts.

To change the map : click on the green buttons with a black cross to zoom in, on the green button with a dash to zoom out, or on the green arrows for adjacent maps.


METAR-TAF: